Time,TemperatureF,DewpointF,PressureIn,WindDirection,WindDirectionDegrees,WindSpeedMPH,WindSpeedGustMPH,Humidity,HourlyPrecipIn,Conditions,Clouds,dailyrainin,SoftwareType,DateUTC
2013-02-06 12:22:00,30.0,19.0,-100.00,SE,138,2.0,6.0,62,0.00,,,-99.99,,2013-02-06 17:22:00,
2013-02-06 12:32:00,32.0,21.0,-100.00,SSW,197,2.0,6.0,60,0.00,,,-99.99,,2013-02-06 17:32:00,
2013-02-06 12:42:00,33.0,21.0,-100.00,NE,50,2.0,6.0,60,0.00,,,-99.99,,2013-02-06 17:42:00,
2013-02-06 12:52:00,30.0,19.0,-100.00,East,80,4.0,6.0,63,0.00,,,-99.99,,2013-02-06 17:52:00,
2013-02-06 13:02:00,30.0,19.0,-100.00,East,79,2.0,6.0,62,0.00,,,-99.99,,2013-02-06 18:02:00,
2013-02-06 13:12:00,32.0,19.0,-100.00,ENE,76,1.0,6.0,58,0.00,,,-99.99,,2013-02-06 18:12:00,
2013-02-06 13:23:00,31.0,19.0,-100.00,SE,131,4.0,6.0,59,0.00,,,-99.99,,2013-02-06 18:23:00,
2013-02-06 13:32:00,31.0,18.0,-100.00,South,186,3.0,6.0,58,0.00,,,-99.99,,2013-02-06 18:32:00,
2013-02-06 13:42:00,32.0,19.0,-100.00,NE,36,3.0,6.0,58,0.00,,,-99.99,,2013-02-06 18:42:00,
2013-02-06 13:52:00,32.0,19.0,-100.00,East,90,2.0,6.0,56,0.00,,,-99.99,,2013-02-06 18:52:00,
2013-02-06 14:02:00,32.0,19.0,-100.00,ENE,66,2.0,6.0,56,0.00,,,-99.99,,2013-02-06 19:02:00,
2013-02-06 14:11:00,31.0,19.0,-100.00,NNE,31,4.0,6.0,58,0.00,,,-99.99,,2013-02-06 19:11:00,
2013-02-06 14:22:00,31.0,18.0,-100.00,North,9,4.0,6.0,56,0.00,,,-99.99,,2013-02-06 19:22:00,
2013-02-06 14:32:00,32.0,18.0,-100.00,SE,146,2.0,6.0,53,0.00,,,-99.99,,2013-02-06 19:32:00,
2013-02-06 14:42:00,33.0,19.0,-100.00,ESE,107,2.0,6.0,53,0.00,,,-99.99,,2013-02-06 19:42:00,
2013-02-06 14:52:00,33.0,19.0,-100.00,East,87,3.0,6.0,55,0.00,,,-99.99,,2013-02-06 19:52:00,
2013-02-06 15:01:00,32.0,18.0,-100.00,East,93,3.0,6.0,54,0.00,,,-99.99,,2013-02-06 20:01:00,
2013-02-06 15:11:00,34.0,19.0,-100.00,NNE,29,2.0,6.0,53,0.00,,,-99.99,,2013-02-06 20:11:00,
2013-02-06 15:21:00,33.0,19.0,-100.00,ENE,66,4.0,8.0,53,0.00,,,-99.99,,2013-02-06 20:21:00,
2013-02-06 15:32:00,34.0,19.0,-100.00,ENE,60,3.0,8.0,55,0.00,,,-99.99,,2013-02-06 20:32:00,
2013-02-06 15:42:00,34.0,19.0,-100.00,NE,42,2.0,8.0,53,0.00,,,-99.99,,2013-02-06 20:42:00,
2013-02-06 15:52:00,32.0,18.0,-100.00,SE,131,3.0,8.0,54,0.00,,,-99.99,,2013-02-06 20:52:00,
2013-02-06 16:02:00,34.0,19.0,-100.00,ESE,111,2.0,8.0,53,0.00,,,-99.99,,2013-02-06 21:02:00,
2013-02-06 16:11:00,33.0,19.0,-100.00,ENE,70,2.0,8.0,54,0.00,,,-99.99,,2013-02-06 21:11:00,
2013-02-06 16:21:00,34.0,18.0,-100.00,ENE,76,2.0,8.0,50,0.00,,,-99.99,,2013-02-06 21:21:00,
2013-02-06 16:32:00,34.0,21.0,-100.00,ENE,70,2.0,8.0,54,0.00,,,-99.99,,2013-02-06 21:32:00,
2013-02-06 16:42:00,34.0,19.0,-100.00,NNE,32,1.0,8.0,51,0.00,,,-99.99,,2013-02-06 21:42:00,
2013-02-06 16:51:00,31.0,18.0,-100.00,ENE,67,2.0,8.0,54,0.00,,,-99.99,,2013-02-06 21:51:00,
2013-02-06 17:01:00,33.0,19.0,-100.00,NNE,31,1.0,8.0,53,0.00,,,-99.99,,2013-02-06 22:01:00,
2013-02-06 17:11:00,33.0,19.0,-100.00,East,86,1.0,8.0,53,0.00,,,-99.99,,2013-02-06 22:11:00,
2013-02-06 17:22:00,33.0,18.0,-100.00,ESE,111,2.0,8.0,50,0.00,,,-99.99,,2013-02-06 22:22:00,
2013-02-06 17:32:00,33.0,18.0,-100.00,SE,127,1.0,8.0,51,0.00,,,-99.99,,2013-02-06 22:32:00,
2013-02-06 17:42:00,33.0,18.0,-100.00,SSE,153,2.0,8.0,51,0.00,,,-99.99,,2013-02-06 22:42:00,
2013-02-06 17:52:00,31.0,18.0,-100.00,South,173,1.0,8.0,55,0.00,,,-99.99,,2013-02-06 22:52:00,
2013-02-06 18:01:00,31.0,18.0,-100.00,SE,131,1.0,8.0,56,0.00,,,-99.99,,2013-02-06 23:01:00,
2013-02-06 18:11:00,30.0,19.0,-100.00,WSW,252,0.0,8.0,60,0.00,,,-99.99,,2013-02-06 23:11:00,
2013-02-06 18:21:00,28.0,19.0,-100.00,NW,312,0.0,8.0,67,0.00,,,-99.99,,2013-02-06 23:21:00,
2013-02-06 18:32:00,28.0,19.0,-100.00,SE,132,0.0,8.0,68,0.00,,,-99.99,,2013-02-06 23:32:00,
2013-02-06 18:42:00,26.0,19.0,-100.00,WSW,244,1.0,8.0,72,0.00,,,-99.99,,2013-02-06 23:42:00,
2013-02-06 18:52:00,26.0,19.0,-100.00,ESE,117,0.0,8.0,73,0.00,,,-99.99,,2013-02-06 23:52:00,
2013-02-06 19:02:00,26.0,19.0,-100.00,WSW,252,1.0,8.0,75,0.00,,,-99.99,,2013-02-07 00:02:00,
2013-02-06 19:11:00,24.0,18.0,-100.00,SE,145,1.0,8.0,75,0.00,,,-99.99,,2013-02-07 00:11:00,
2013-02-06 19:22:00,24.0,19.0,-100.00,SW,221,0.0,8.0,77,0.00,,,-99.99,,2013-02-07 00:22:00,
2013-02-06 19:32:00,24.0,19.0,-100.00,SW,227,0.0,8.0,77,0.00,,,-99.99,,2013-02-07 00:32:00,
2013-02-06 19:42:00,24.0,19.0,-100.00,West,268,0.0,8.0,77,0.00,,,-99.99,,2013-02-07 00:42:00,
2013-02-06 19:52:00,24.0,19.0,-100.00,South,184,0.0,8.0,77,0.00,,,-99.99,,2013-02-07 00:52:00,
2013-02-06 20:01:00,22.0,18.0,-100.00,South,173,1.0,8.0,76,0.00,,,-99.99,,2013-02-07 01:01:00,
2013-02-06 20:11:00,23.0,18.0,-100.00,SE,145,0.0,8.0,77,0.00,,,-99.99,,2013-02-07 01:11:00,
2013-02-06 20:21:00,23.0,18.0,-100.00,West,259,0.0,8.0,77,0.00,,,-99.99,,2013-02-07 01:21:00,
2013-02-06 20:32:00,22.0,18.0,-100.00,West,259,1.0,8.0,78,0.00,,,-99.99,,2013-02-07 01:32:00,
2013-02-06 20:42:00,20.0,16.0,-100.00,SE,139,0.0,8.0,78,0.00,,,-99.99,,2013-02-07 01:42:00,
2013-02-06 20:52:00,20.0,16.0,-100.00,WSW,254,1.0,8.0,80,0.00,,,-99.99,,2013-02-07 01:52:00,
2013-02-06 21:01:00,20.0,16.0,-100.00,WSW,252,1.0,8.0,81,0.00,,,-99.99,,2013-02-07 02:01:00,
2013-02-06 21:12:00,20.0,16.0,-100.00,West,276,1.0,8.0,81,0.00,,,-99.99,,2013-02-07 02:12:00,
2013-02-06 21:21:00,21.0,18.0,-100.00,NE,55,0.0,8.0,81,0.00,,,-99.99,,2013-02-07 02:21:00,
2013-02-06 21:32:00,19.0,16.0,-100.00,ENE,66,0.0,8.0,81,0.00,,,-99.99,,2013-02-07 02:32:00,
2013-02-06 21:42:00,19.0,16.0,-100.00,ENE,66,0.0,8.0,81,0.00,,,-99.99,,2013-02-07 02:42:00,
2013-02-06 21:51:00,19.0,16.0,-100.00,ENE,66,0.0,8.0,81,0.00,,,-99.99,,2013-02-07 02:51:00,
2013-02-06 22:02:00,18.0,14.0,-100.00,SW,234,1.0,8.0,82,0.00,,,-99.99,,2013-02-07 03:02:00,
2013-02-06 22:11:00,18.0,16.0,-100.00,West,276,1.0,8.0,84,0.00,,,-99.99,,2013-02-07 03:11:00,
2013-02-06 22:21:00,19.0,16.0,-100.00,WNW,303,1.0,8.0,82,0.00,,,-99.99,,2013-02-07 03:21:00,
2013-02-06 22:32:00,18.0,14.0,-100.00,SSW,203,0.0,8.0,82,0.00,,,-99.99,,2013-02-07 03:32:00,
2013-02-06 22:42:00,17.0,14.0,-100.00,West,261,1.0,8.0,84,0.00,,,-99.99,,2013-02-07 03:42:00,
2013-02-06 22:52:00,17.0,14.0,-100.00,WSW,255,2.0,8.0,85,0.00,,,-99.99,,2013-02-07 03:52:00,
2013-02-06 23:01:00,17.0,14.0,-100.00,SW,224,2.0,8.0,84,0.00,,,-99.99,,2013-02-07 04:01:00,
2013-02-06 23:11:00,17.0,14.0,-100.00,WSW,256,2.0,8.0,85,0.00,,,-99.99,,2013-02-07 04:11:00,
2013-02-06 23:22:00,17.0,14.0,-100.00,NW,321,1.0,8.0,85,0.00,,,-99.99,,2013-02-07 04:22:00,
2013-02-06 23:32:00,16.0,14.0,-100.00,ENE,70,0.0,8.0,86,0.00,,,-99.99,,2013-02-07 04:32:00,
2013-02-06 23:42:00,17.0,14.0,-100.00,West,265,1.0,8.0,86,0.00,,,-99.99,,2013-02-07 04:42:00,
2013-02-06 23:53:00,16.0,14.0,-100.00,SW,227,1.0,8.0,86,0.00,,,-99.99,,2013-02-07 04:53:00,